Weather History for Ogallala, NE

Change the Weather History Date:

Wednesday, May 13, 2009

  Actual Average Record
Temperature  
Mean Temperature 53 °F -  
Max Temperature 62 °F 67 °F 94 °F (1962)
Min Temperature 44 °F 43 °F 25 °F (1953)
Degree Days  
Heating Degree Days 12    
Growing Degree Days 3 (Base 50)    
Moisture  
Dew Point 34 °F    
Average Humidity 52    
Maximum Humidity 87    
Minimum Humidity 15    
Precipitation  
Precipitation 0.01 in - - ()
Sea Level Pressure  
Sea Level Pressure 29.79 in    
Wind  
Wind Speed 14 mph (NW)    
Max Wind Speed 36 mph    
Max Gust Speed 46 mph    
Visibility 10 miles    
Events      
Averages and records for this station are not official NWS values.
T = Trace of Precipitation, MM = Missing Value Source: NWS Daily Summary

Daily Weather History Graph

Daily Weather History Graph

Search for Another Location

Airport:

Trip Planner

Search our weather history database for the weather conditions in past years. The results will help you decide how hot, cold, wet, or windy it might be!

Date:

Astronomy

May. 13, 2009 Rise Set
Actual Time 5:30 AM MDT 7:56 PM MDT
Civil Twilight 4:59 AM MDT 8:28 PM MDT
Nautical Twilight 4:20 AM MDT 9:06 PM MDT
Astronomical Twilight 3:37 AM MDT 9:50 PM MDT
Moon No Moon Rise 8:42 AM MDT (5/13)
Length of Visible Light 15h 28m
Length of Day
14h 26m
Waning Gibbous, 81% of the Moon is Illuminated
May 13
Waning Gibbous
May 17
Last Quarter
May 24
New
May 30
First Quarter
Jun 7
Full

Hourly Weather History & Observations

Time (MDT) Temp. Windchill Dew Point Humidity Pressure Visibility Wind Dir Wind Speed Gust Speed Precip Events Conditions
12:10 AM 59.0 °F - 48.2 °F 67% 29.60 in 10.0 mi North 15.0 mph - N/A   Clear
12:30 AM 59.0 °F - 46.4 °F 63% 29.61 in 10.0 mi North 15.0 mph - N/A   Clear
12:50 AM 55.4 °F - 46.4 °F 72% 29.61 in 10.0 mi NNE 10.4 mph - N/A   Clear
1:10 AM 53.6 °F - 46.4 °F 77% 29.61 in 10.0 mi NNE 5.8 mph - N/A   Clear
1:30 AM 51.8 °F - 44.6 °F 76% 29.62 in 10.0 mi Calm Calm - N/A   Clear
1:50 AM 51.8 °F - 44.6 °F 76% 29.62 in 10.0 mi Calm Calm - N/A   Clear
2:10 AM 50.0 °F - 44.6 °F 82% 29.62 in 10.0 mi West 5.8 mph - N/A   Clear
2:30 AM 46.4 °F 45.2 °F 42.8 °F 87% 29.62 in 10.0 mi WNW 3.5 mph - N/A   Clear
2:50 AM 50.0 °F - 42.8 °F 76% 29.63 in 10.0 mi Calm Calm - N/A   Clear
3:10 AM 46.4 °F 45.2 °F 42.8 °F 87% 29.63 in 10.0 mi NW 3.5 mph - N/A   Clear
3:30 AM 46.4 °F - 42.8 °F 87% 29.64 in 10.0 mi Calm Calm - N/A   Clear
3:50 AM 44.6 °F - 41.0 °F 87% 29.66 in 10.0 mi Calm Calm - N/A   Clear
4:10 AM 44.6 °F - 41.0 °F 87% 29.67 in 10.0 mi Calm Calm - N/A   Clear
4:30 AM 44.6 °F - 41.0 °F 87% 29.67 in 10.0 mi Calm Calm - N/A   Clear
4:50 AM 44.6 °F 42.2 °F 41.0 °F 87% 29.68 in 10.0 mi West 4.6 mph - N/A   Clear
5:10 AM 44.6 °F 40.7 °F 41.0 °F 87% 29.69 in 10.0 mi NNW 6.9 mph - N/A   Clear
5:30 AM 46.4 °F 42.4 °F 41.0 °F 81% 29.71 in 10.0 mi North 8.1 mph - N/A   Clear
5:50 AM 46.4 °F 42.9 °F 41.0 °F 81% 29.71 in 10.0 mi North 6.9 mph - N/A   Clear
6:10 AM 50.0 °F - 42.8 °F 76% 29.72 in 10.0 mi North 6.9 mph - N/A   Clear
6:30 AM 51.8 °F - 44.6 °F 76% 29.74 in 10.0 mi NW 9.2 mph - N/A   Clear
6:50 AM 50.0 °F - 42.8 °F 76% 29.75 in 10.0 mi NNW 15.0 mph - N/A   Clear
7:10 AM 51.8 °F - 42.8 °F 71% 29.77 in 10.0 mi NNW 17.3 mph 21.9 mph N/A   Clear
7:30 AM 51.8 °F - 42.8 °F 71% 29.78 in 10.0 mi NNW 19.6 mph 24.2 mph N/A   Clear
7:50 AM 51.8 °F - 42.8 °F 71% 29.78 in 10.0 mi NNW 17.3 mph 23.0 mph N/A   Clear
8:10 AM 51.8 °F - 42.8 °F 71% 29.78 in 10.0 mi NNW 16.1 mph - N/A   Clear
8:30 AM 53.6 °F - 42.8 °F 67% 29.80 in 10.0 mi NNW 15.0 mph 19.6 mph N/A   Clear
8:50 AM 55.4 °F - 42.8 °F 63% 29.80 in 10.0 mi NNW 13.8 mph - N/A   Clear
9:10 AM 55.4 °F - 42.8 °F 63% 29.80 in 10.0 mi NNW 15.0 mph - N/A   Clear
9:30 AM 57.2 °F - 42.8 °F 59% 29.81 in 10.0 mi NNW 12.7 mph - N/A   Clear
9:50 AM 59.0 °F - 42.8 °F 55% 29.82 in 10.0 mi NW 13.8 mph - N/A   Clear
10:10 AM 59.0 °F - 42.8 °F 55% 29.82 in 10.0 mi NW 10.4 mph - N/A   Clear
10:30 AM 60.8 °F - 39.2 °F 45% 29.83 in 10.0 mi NNW 25.3 mph 34.5 mph N/A   Clear
10:50 AM 60.8 °F - 33.8 °F 36% 29.84 in 10.0 mi NW 20.7 mph 29.9 mph N/A   Clear
11:10 AM 60.8 °F - 30.2 °F 31% 29.84 in 10.0 mi WNW 25.3 mph 39.1 mph N/A   Clear
11:30 AM 60.8 °F - 30.2 °F 31% 29.86 in 10.0 mi WNW 35.7 mph 44.9 mph N/A   Clear
11:50 AM 60.8 °F - 30.2 °F 31% 29.87 in 10.0 mi WNW 28.8 mph 40.3 mph N/A   Clear
12:10 PM 60.8 °F - 30.2 °F 31% 29.88 in 10.0 mi NW 25.3 mph 36.8 mph N/A   Clear
12:30 PM 60.8 °F - 30.2 °F 31% 29.88 in 10.0 mi NNW 28.8 mph 34.5 mph N/A   Clear
12:50 PM 60.8 °F - 30.2 °F 31% 29.88 in 10.0 mi NW 26.5 mph 41.4 mph N/A   Clear
1:10 PM 60.8 °F - 28.4 °F 29% 29.90 in 10.0 mi NW 27.6 mph 40.3 mph N/A   Clear
1:30 PM 60.8 °F - 28.4 °F 29% 29.90 in 10.0 mi NW 33.4 mph 42.6 mph N/A   Clear
1:50 PM 62.6 °F - 17.6 °F 18% 29.91 in 10.0 mi NW 33.4 mph 46.0 mph 0.01 in   Clear
2:10 PM 62.6 °F - 17.6 °F 18% 29.91 in 10.0 mi NW 34.5 mph 43.7 mph N/A   Clear
2:30 PM 60.8 °F - 15.8 °F 17% 29.91 in 10.0 mi NW 31.1 mph 40.3 mph N/A   Clear
2:50 PM 60.8 °F - 14.0 °F 16% 29.91 in 10.0 mi NNW 33.4 mph 41.4 mph N/A   Clear
3:10 PM 60.8 °F - 17.6 °F 19% 29.93 in 10.0 mi NW 31.1 mph 41.4 mph N/A   Scattered Clouds
3:30 PM 60.8 °F - 14.0 °F 16% 29.93 in 10.0 mi NW 27.6 mph 39.1 mph N/A   Scattered Clouds
3:50 PM 60.8 °F - 14.0 °F 16% 29.93 in 10.0 mi NW 28.8 mph 38.0 mph N/A   Clear
4:10 PM 60.8 °F - 17.6 °F 19% 29.93 in 10.0 mi NW 28.8 mph 42.6 mph N/A   Clear
4:30 PM 60.8 °F - 17.6 °F 19% 29.93 in 10.0 mi NW 25.3 mph 39.1 mph N/A   Clear
4:50 PM 62.6 °F - 14.0 °F 15% 29.93 in 10.0 mi NNW 34.5 mph 41.4 mph N/A   Clear
5:10 PM 62.6 °F - 14.0 °F 15% 29.93 in 10.0 mi NNW 28.8 mph 46.0 mph N/A   Clear
5:30 PM 62.6 °F - 15.8 °F 16% 29.94 in 10.0 mi NW 28.8 mph 38.0 mph N/A   Clear
5:50 PM 62.6 °F - 15.8 °F 16% 29.95 in 10.0 mi NW 27.6 mph 39.1 mph N/A   Clear
6:10 PM 60.8 °F - 14.0 °F 16% 29.95 in 10.0 mi NW 33.4 mph 42.6 mph N/A   Clear
6:30 PM 60.8 °F - 14.0 °F 16% 29.95 in 10.0 mi NW 27.6 mph 38.0 mph N/A   Clear
6:50 PM 60.8 °F - 14.0 °F 16% 29.95 in 10.0 mi NW 31.1 mph 40.3 mph N/A   Clear
7:10 PM 59.0 °F - 17.6 °F 20% 29.97 in 10.0 mi NNW 25.3 mph 35.7 mph N/A   Clear
7:30 PM 59.0 °F - 19.4 °F 22% 29.98 in 10.0 mi NNW 20.7 mph 28.8 mph N/A   Clear
7:50 PM 55.4 °F - 24.8 °F 31% 29.99 in 10.0 mi North 20.7 mph 27.6 mph N/A   Clear
8:10 PM 53.6 °F - 24.8 °F 33% 30.00 in 10.0 mi North 19.6 mph 24.2 mph N/A   Clear
8:30 PM 53.6 °F - 24.8 °F 33% 30.02 in 10.0 mi NNW 16.1 mph - N/A   Clear
8:50 PM 51.8 °F - 26.6 °F 38% 30.05 in 10.0 mi NNW 10.4 mph - N/A   Clear
9:10 PM 48.2 °F - 28.4 °F 46% 30.06 in 10.0 mi NNW 10.4 mph - N/A   Clear
9:30 PM 46.4 °F 39.2 °F 30.2 °F 53% 30.05 in 10.0 mi NNW 18.4 mph - N/A   Clear
9:50 PM 50.0 °F - 28.4 °F 43% 30.04 in 10.0 mi North 25.3 mph 29.9 mph N/A   Clear
10:10 PM 50.0 °F - 28.4 °F 43% 30.06 in 10.0 mi NNW 8.1 mph 23.0 mph N/A   Clear
10:30 PM 48.2 °F - 28.4 °F 46% 30.07 in 10.0 mi WSW 5.8 mph - N/A   Clear
10:50 PM 46.4 °F 42.9 °F 30.2 °F 53% 30.08 in 10.0 mi WNW 6.9 mph - N/A   Clear
11:10 PM 44.6 °F 42.2 °F 30.2 °F 57% 30.08 in 10.0 mi NW 4.6 mph - N/A   Clear
11:50 PM 41.0 °F 39.0 °F 30.2 °F 65% 30.07 in 10.0 mi NNW 3.5 mph - N/A   Clear